User: anonymous   Login
Location: Unspecified
(0.0000°N, 0.0000°E)
Time: 20:15:27
(UTC+00:00)
Language:

SKYMED 2 - Orbit

View from above orbital plane
View from above orbital plane
View from above satellite
View from above satellite

Ground track
Ground track

The orbit data is extracted from the following two-line orbital elements,

1 32376U 07059A   24058.51999954  .00000921  00000-0  12228-3 0  9992
2 32376  97.8835 243.2874 0001359  83.2976 276.8392 14.82157940877556
Epoch (UTC): 27 February 2024 12:28:47
Eccentricity: 0.0001359
inclination: 97.8835°
perigee height: 621 km
apogee height: 623 km
right ascension of ascending node: 243.2874°
argument of perigee: 83.2976°
revolutions per day: 14.82157940
mean anomaly at epoch: 276.8392°
orbit number at epoch: 87755

The dashed part of the orbit path shows where the satellite is in the earth's shadow,  

DLR